Hourly Data Report for October 07, 2016

All times are specified in Local Standard Time (LST). Add 1 hour to adjust for Daylight Saving Time where and when it is observed.

CORAL HARBOUR A
NUNAVUT

64°11'36.000" N
83°21'34.000" W
62.20 m
2301002
71915
YZS

Download Data

Hourly Data (October 2016)
Hourly Data Report for October 7, 2016
Temp Definition
°C
Dew Point Temp Definition
°C
Rel Hum Definition
%
Wind Dir Definition
10's deg

Wind Spd Definition
km/h
Visibility Definition
km
Stn Press Definition
kPa
Hmdx Definition


Wind Chill Definition


Weather Definition


TIME
00:00 Legend Double Dagger -2.1 -3.8 88 27 7 24.1 101.44   -5 LegendNANA
01:00 Legend Double Dagger -2.9 -4.3 90 23 7 24.1 101.46   -6 Mostly Cloudy
02:00 Legend Double Dagger -3.4 -4.5 92 30 5 24.1 101.50   -5 LegendNANA
03:00 Legend Double Dagger -3.4 -4.5 92 27 9 24.1 101.53   -7 LegendNANA
04:00 Legend Double Dagger -5.1 -6.1 93 31 8 24.1 101.56   -9 Mostly Cloudy
05:00 Legend Double Dagger -5.3 -6.3 93 32 13 24.1 101.57   -10 LegendNANA
06:00 Legend Double Dagger -5.9 -7.1 91 35 15 24.1 101.63   -12 LegendNANA
07:00 Legend Double Dagger -5.7 -6.7 93 36 14 24.1 101.63   -11 Clear
08:00 Legend Double Dagger -5.9 -7.0 92 30 8 24.1 101.67   -10 LegendNANA
09:00 Legend Double Dagger -2.5 -4.4 87 28 5 24.1 101.71   -4 LegendNANA
10:00 Legend Double Dagger -1.2 -3.1 87 30 16 24.1 101.69   -6 Mostly Cloudy
11:00 Legend Double Dagger -0.4 -3.3 81 28 14 24.1 101.70   -5 LegendNANA
12:00 Legend Double Dagger -0.2 -2.7 83 30 19 24.1 101.71   -5 LegendNANA
13:00 Legend Double Dagger 0.3 -3.8 74 29 18 24.1 101.69     Mostly Cloudy
14:00 Legend Double Dagger 0.4 -4.1 72 31 16 24.1 101.67     LegendNANA
15:00 Legend Double Dagger 0.5 -5.5 64 31 19 24.1 101.67     LegendNANA
16:00 Legend Double Dagger 0.1 -4.9 69 32 13 24.1 101.66     Mostly Cloudy
17:00 Legend Double Dagger -0.7 -4.6 75 32 10 24.1 101.65   -4 LegendNANA
18:00 Legend Double Dagger -2.0 -5.0 80 31 8 24.1 101.65   -5 LegendNANA
19:00 Legend Double Dagger -2.9 -4.8 87 32 10 24.1 101.64   -7 Mostly Cloudy
20:00 Legend Double Dagger -3.3 -5.5 85 32 11 24.1 101.60   -8 LegendNANA
21:00 Legend Double Dagger -3.8 -5.5 88 35 13 24.1 101.58   -9 LegendNANA
22:00 Legend Double Dagger -5.3 -6.5 91 34 16 24.1 101.54   -11 Clear
23:00 Legend Double Dagger -5.1 -6.6 89 34 14 24.1 101.49   -10 LegendNANA

Notes on Data Quality.

Legend

  • E = Estimated
  • M = Missing
  • NA = Not Available
  • ‡ = Partner data that is not subject to review by the National Climate Archives
Date modified: